RYR926K EDDK-LPPR

Flight info

Callsign RYR926K
Flight time N/A
Altitude 35000
Route NVO Y868 SOGRI UM617 CIV N872 MEDIL/N0455F370 DCT KOVIN DCT NIDUV DCT KIHVI UN872 TERPO/N0453F350 UN872 ERIGA UN741 AZFIC DCT LOTEE DCT ELTEP/N0402F230 T328 ASPOR
Aircraft B38M/M-SDE1FGHILORVWXY/HB1

Departure

Time 2026-05-07 12:59
Airport Cologne Bonn Airport (EDDK)

Arrival

Time N/A
Airport Francisco de Sá Carneiro Airport (LPPR)
Time Latitude Longitude Altitude Speed Heading
2026-05-07 12:41 50.88083 7.12142 237 ft 0 kts 216°
2026-05-07 12:47 50.88085 7.12145 235 ft 2 kts 216°
2026-05-07 12:47 50.88106 7.12167 238 ft 4 kts 214°
2026-05-07 12:47 50.88124 7.12187 239 ft 4 kts 206°
2026-05-07 12:48 50.88148 7.12194 236 ft 4 kts 163°
2026-05-07 12:48 50.88166 7.12174 238 ft 2 kts 126°
2026-05-07 12:48 50.88167 7.12172 238 ft 0 kts 126°
2026-05-07 12:51 50.88166 7.12174 235 ft 1 kts 126°
2026-05-07 12:51 50.88150 7.12210 235 ft 9 kts 126°
2026-05-07 12:52 50.88099 7.12323 235 ft 14 kts 126°
2026-05-07 12:52 50.88032 7.12452 235 ft 16 kts 137°
2026-05-07 12:52 50.87948 7.12570 239 ft 16 kts 137°
2026-05-07 12:52 50.87863 7.12610 235 ft 14 kts 181°
2026-05-07 12:53 50.87779 7.12685 235 ft 15 kts 137°
2026-05-07 12:53 50.87698 7.12802 236 ft 16 kts 137°
2026-05-07 12:53 50.87610 7.12928 235 ft 18 kts 137°
2026-05-07 12:53 50.87514 7.13067 237 ft 19 kts 137°
2026-05-07 12:54 50.87411 7.13217 235 ft 21 kts 137°
2026-05-07 12:54 50.87301 7.13377 235 ft 22 kts 137°
2026-05-07 12:54 50.87189 7.13540 239 ft 21 kts 137°
2026-05-07 12:54 50.87080 7.13695 243 ft 21 kts 137°
2026-05-07 12:55 50.86977 7.13846 247 ft 20 kts 137°
2026-05-07 12:55 50.86886 7.13977 256 ft 16 kts 137°
2026-05-07 12:55 50.86807 7.14092 257 ft 16 kts 137°
2026-05-07 12:55 50.86710 7.14170 260 ft 15 kts 137°
2026-05-07 12:56 50.86639 7.14275 264 ft 14 kts 137°
2026-05-07 12:56 50.86553 7.14400 265 ft 20 kts 137°
2026-05-07 12:56 50.86443 7.14557 272 ft 23 kts 138°
2026-05-07 12:56 50.86318 7.14739 279 ft 27 kts 137°
2026-05-07 12:57 50.86176 7.14944 287 ft 27 kts 137°
2026-05-07 12:57 50.86065 7.15109 293 ft 18 kts 128°
2026-05-07 12:57 50.86059 7.15289 294 ft 17 kts 60°
2026-05-07 12:57 50.86135 7.15357 292 ft 12 kts
2026-05-07 12:58 50.86231 7.15332 295 ft 16 kts 348°
2026-05-07 12:58 50.86348 7.15321 288 ft 14 kts 19°
2026-05-07 12:58 50.86400 7.15294 288 ft 16 kts 317°
2026-05-07 12:58 50.86683 7.14884 273 ft 93 kts 317°
2026-05-07 12:59 50.87327 7.13954 245 ft 155 kts 317°
2026-05-07 12:59 50.88171 7.12715 751 ft 165 kts 317°
2026-05-07 12:59 50.89000 7.11497 1652 ft 161 kts 318°
2026-05-07 12:59 50.89852 7.10267 2251 ft 176 kts 319°
2026-05-07 13:00 50.90784 7.08913 2757 ft 193 kts 315°
2026-05-07 13:00 50.91472 7.07033 3409 ft 209 kts 283°
2026-05-07 13:00 50.91306 7.04639 3974 ft 234 kts 250°
2026-05-07 13:00 50.90603 7.02231 4704 ft 250 kts 248°
2026-05-07 13:01 50.89932 6.99641 5647 ft 257 kts 250°
2026-05-07 13:01 50.89320 6.96910 6600 ft 272 kts 253°
2026-05-07 13:01 50.88725 6.94041 7542 ft 275 kts 253°
2026-05-07 13:01 50.88134 6.91148 8485 ft 276 kts 252°
2026-05-07 13:02 50.87525 6.88234 9374 ft 281 kts 252°
2026-05-07 13:02 50.86908 6.85313 10202 ft 286 kts 252°
2026-05-07 13:02 50.86256 6.82248 10713 ft 303 kts 252°